Regional Weather Roundup
Issued by NWS

Home | Current Version | Previous Version | Text Only | Print | Product List | Glossary On
Versions: 1 2 3 4 5 6 7 8 9 10 11 12 13 14 15 16 17 18 19 20 21 22 23 24 25 26 27 28 29 30 31 32 33 34 35 36 37 38 39 40 41 42 43 44 45 46 47 48 49 50
000
ASUS45 KREV 230310
RWRNV
NEVADA REGIONAL WEATHER ROUNDUP
NATIONAL WEATHER SERVICE RENO NV
800 PM PDT FRI AUG 22 2014

NOTE: "FAIR" INDICATES FEW OR NO CLOUDS BELOW 12,000 FEET WITH NO
SIGNIFICANT WEATHER AND/OR OBSTRUCTIONS TO VISIBILITY.

NVZ001-003-004-230400-
WESTERN NEVADA

CITY           SKY/WX    TMP DP  RH WIND       PRES   REMARKS
RENO           PTCLDY    74  37  26 W17G25    29.99R
CARSON CITY    FAIR      72  39  30 N6        30.03R
SLIDE MTN        N/A     48  32  53 W16         N/A
FALLON         PTCLDY    79  33  19 W16       29.91R
LOVELOCK       MOCLDY    79  40  24 NW21G28   29.92R
HAWTHORNE      CLEAR     82  30  15 SW17      29.92R
$$

NVZ002-CAZ072-073-230400-
NORTHERN AND CENTRAL SIERRA

CITY           SKY/WX    TMP DP  RH WIND       PRES   REMARKS
S. LAKE TAHOE  CLEAR     65  34  31 SW8G18    30.12R
TRUCKEE        CLEAR     61  36  39 W7        30.11R
SQUAW VLY 8000   N/A     52  37  58 VRB14       N/A
SUSANVILLE     PTCLDY    73  39  29 W10       29.98
BLUE CANYON    CLEAR     64  39  39 S6        30.11R
MAMMOTH LAKES  FAIR      63  32  31 W9        30.16R
BRIDGEPORT     FAIR      61  32  33 VRB6      30.13R
$$

NVZ030-031-036-230400-
NORTHERN NEVADA

CITY           SKY/WX    TMP DP  RH WIND       PRES   REMARKS
ELKO           MOCLDY    66  31  27 NE8       29.98R
WINNEMUCCA     PTCLDY    73  32  22 N16       29.93R
WENDOVER       MOCLDY    64  54  68 N6        29.97R
$$

NVZ035-037-230400-
CENTRAL NEVADA

CITY           SKY/WX    TMP DP  RH WIND       PRES   REMARKS
ELY            MOCLDY    57  51  80 S8        30.01S
EUREKA           N/A     68  33  27 NW8       29.97R
$$

NVZ013-014-230400-
SOUTH CENTRAL NEVADA

CITY           SKY/WX    TMP DP  RH WIND       PRES   REMARKS
TONOPAH        MOCLDY    79  26  14 N15       29.95R
$$

NVZ017-020-022-230400-
SOUTHERN NEVADA

CITY           SKY/WX    TMP DP  RH WIND       PRES   REMARKS
LAS VEGAS      CLEAR     91  44  19 S16G24    29.78R
N. LAS VEGAS   CLEAR     90  44  20 S12       29.79R
NELLIS AFB     CLEAR     88  52  29 SE25      29.78R
HENDERSON      CLEAR     86  52  30 SE17      29.85R
MERCURY        CLEAR     85  45  24 S17G26    29.85R
$$


USA.gov is the U.S. government's official web portal to all federal, state and local government web resources and services.